Theta_e
313 313 313 313 313 312 312 311 304 301 300 300 300 300 300 300 301 301 302 305 308 312 312 313 313 310 310 311 313 315 320 321 321 321 323 320 321 320 323 323 321 317 319 322 320
313 312 312 313 313 313 312 311 310 301 300 300 300 301 302 300 303 301 308 304 303 307 310 312 311 308 306 309 313 315 318 320 317 318 320 320 317 317 316 316 316 319 319 319 319
312 313 313 311 313 312 312 311 311 307 299 299 299 300 305 305 300 304 305 304 304 303 306 310 309 308 306 308 311 312 318 317 319 320 320 320 315 316 313 315 316 321 324 320 317
309 310 309 312 312 312 311 311 310 310 305 298 299 301 305 303 302 304 304 304 304 302 305 309 309 307 305 305 309 312 313 317 318 321 319 314 318 313 313 319 321 321 320 320 319
301 302 303 305 310 310 311 310 310 310 309 299 301 304 304 303 303 301 300 300 302 303 305 308 306 306 305 305 306 309 311 314 316 318 318 316 312 314 314 321 320 322 322 320 319
301 301 306 305 306 310 310 309 309 309 309 302 303 304 304 302 301 302 300 300 301 305 303 308 307 307 306 306 305 308 307 308 311 314 315 314 313 314 317 318 318 319 320 319 319
301 301 306 308 307 309 309 308 308 308 308 306 304 303 304 302 301 300 300 301 301 302 305 304 306 305 306 306 308 307 307 306 305 308 310 312 310 309 315 314 314 315 315 315 316
300 301 304 309 307 307 309 308 308 308 307 304 299 303 303 301 300 300 299 300 301 299 301 302 304 304 305 307 305 305 305 308 307 306 309 310 313 308 312 311 311 312 312 312 312
301 301 301 306 308 309 308 308 307 307 307 301 302 302 302 301 300 300 300 299 299 300 300 302 303 304 304 304 304 303 306 304 306 303 306 307 309 307 307 307 307 308 309 309 310
297 300 301 302 304 310 309 306 306 305 303 300 303 300 301 302 299 299 300 300 299 299 299 301 303 301 300 302 306 306 304 303 304 304 305 306 306 303 304 305 306 307 308 309 310
295 296 300 302 302 304 305 306 305 304 300 299 301 303 299 298 298 298 299 299 298 299 299 300 302 302 302 303 304 303 303 304 302 302 304 303 305 303 305 303 302 305 306 307 308
295 296 299 302 302 305 306 304 305 303 300 303 305 300 299 299 298 297 298 298 299 298 299 300 301 300 300 302 303 301 302 302 301 301 303 301 300 299 300 301 303 304 304 305 306
294 298 301 304 304 304 305 304 303 299 296 297 299 298 297 297 299 299 297 298 298 298 299 299 299 299 301 301 303 302 303 302 302 301 300 299 300 299 298 299 302 303 304 304 304
295 301 304 304 305 305 304 302 301 296 291 296 296 297 296 297 297 298 298 298 298 299 299 299 299 299 299 299 302 302 301 301 301 301 302 298 300 297 298 298 298 299 300 302 302
294 303 304 305 305 303 303 300 299 296 299 297 295 294 295 295 295 295 296 298 299 299 300 299 299 298 299 299 300 301 299 301 301 301 300 298 298 298 298 299 299 299 300 300 300
290 296 302 304 303 302 301 298 296 294 295 294 293 293 295 295 295 294 296 297 297 299 299 299 295 297 299 296 299 298 298 298 296 297 299 298 299 302 298 299 300 299 299 299 300
289 289 290 299 302 300 299 298 298 297 293 294 293 293 294 295 295 294 295 296 298 299 298 297 296 295 296 297 298 298 299 303 303 302 303 295 297 303 299 298 297 298 297 298 300
288 289 289 291 298 299 298 297 297 292 291 295 295 294 294 295 295 294 294 295 295 296 299 299 299 295 295 298 300 299 301 306 307 301 299 295 298 299 297 296 298 298 297 298 299
288 288 289 293 294 297 296 298 299 295 296 296 296 296 293 295 295 294 293 294 296 296 298 300 301 293 293 293 296 298 300 303 304 296 304 300 297 297 296 297 295 294 295 297 298
288 288 290 295 295 296 296 297 295 297 297 297 298 299 300 298 296 296 296 295 295 296 296 298 299 292 292 292 293 296 298 303 303 303 304 302 297 300 297 296 294 293 293 296 298
289 287 290 293 294 294 295 287 290 295 297 298 300 297 296 296 297 296 299 299 297 296 296 297 300 294 292 294 297 294 297 299 301 303 305 298 300 296 297 296 294 292 295 297 298
290 282 288 292 291 289 290 288 295 294 296 297 298 298 298 298 298 295 297 299 298 295 298 298 299 299 293 290 289 290 297 302 302 299 297 299 299 292 293 293 293 292 296 296 297
290 289 288 291 284 282 285 290 294 295 295 295 297 298 298 298 299 298 298 294 293 296 297 298 298 298 299 294 291 291 293 295 297 299 299 300 299 292 292 292 293 293 296 296 297
290 282 288 290 291 288 284 287 288 293 295 294 294 295 295 297 297 297 300 299 297 297 298 298 299 297 298 298 294 293 293 295 298 298 298 298 298 296 295 294 293 295 296 296 295
290 286 287 279 281 284 288 290 290 289 290 293 293 293 292 292 292 296 296 295 296 295 297 297 299 291 293 295 294 296 293 294 297 296 298 298 298 296 294 294 295 296 295 295 293
292 287 286 287 287 286 285 283 289 288 288 287 292 290 290 290 290 293 291 293 294 293 294 294 296 292 292 296 297 298 297 294 295 296 297 297 296 294 295 295 295 295 296 295 292
292 291 289 288 280 283 282 286 288 288 288 291 290 289 286 288 291 289 289 290 290 290 293 293 294 294 293 294 297 297 296 294 293 293 298 298 297 295 295 296 297 297 296 294 291
Wind_Speed
22 24 25 25 25 27 28 28 27 26 25 23 24 25 24 22 24 25 29 29 25 23 22 11 15 16 15 13 14 9 3 8 8 8 6 3 5 6 6 7 11 11 11 8 6
25 25 26 26 27 27 29 30 30 28 27 25 23 22 22 22 26 30 27 28 23 22 22 26 18 17 9 10 10 6 6 10 7 7 5 4 7 8 5 8 9 13 17 16 13
27 27 28 27 27 27 28 27 28 28 27 27 25 20 19 20 25 22 17 19 25 26 23 22 20 17 11 10 11 7 12 4 5 15 13 5 4 7 7 8 11 17 23 19 15
26 27 28 29 29 26 26 25 25 26 26 24 25 20 17 16 7 3 4 7 10 25 21 21 23 13 6 7 12 5 11 12 7 18 6 5 5 6 16 18 14 17 14 17 21
24 26 26 28 26 23 26 24 24 26 27 23 21 16 16 12 26 24 27 24 16 17 24 22 18 13 7 6 9 5 4 12 27 23 15 10 10 9 17 26 24 17 19 19 21
24 23 23 23 24 23 21 25 28 28 29 25 20 13 14 16 16 19 16 16 17 14 24 25 11 18 7 7 9 4 12 13 12 13 12 8 6 6 22 23 25 28 31 29 30
23 22 19 21 19 21 24 27 28 27 27 29 18 12 21 41 20 20 15 14 15 17 20 27 28 10 5 3 15 5 4 4 6 5 7 9 9 12 31 17 16 22 27 29 31
22 22 20 18 19 21 23 25 25 25 25 25 18 12 19 21 24 23 23 17 16 15 15 12 20 22 6 5 2 3 2 8 5 10 6 13 21 10 32 23 30 31 29 30 30
23 23 22 20 22 22 24 27 26 26 28 19 12 11 18 16 17 17 20 20 14 15 13 5 10 10 4 2 3 3 5 6 6 10 4 8 9 7 11 16 23 27 27 26 25
25 23 22 22 20 23 24 32 28 25 18 8 9 6 21 14 10 8 9 18 16 11 9 9 7 3 2 5 15 8 5 6 7 5 3 5 13 10 9 8 13 17 22 23 23
26 24 24 20 20 21 26 21 12 11 8 11 10 18 10 7 7 6 8 12 10 8 7 5 5 13 20 15 6 2 5 6 3 5 5 8 14 9 18 11 16 28 33 35 37
26 23 21 18 19 14 16 17 19 19 15 28 39 44 39 14 8 10 10 11 8 6 4 3 14 18 5 9 11 5 8 14 4 3 5 3 14 10 10 11 22 30 34 40 38
26 22 19 20 12 13 15 16 13 12 7 13 20 15 18 25 23 13 16 11 5 7 11 12 5 8 10 6 13 17 19 14 4 2 3 3 15 6 9 12 25 32 40 36 37
26 18 17 14 5 11 9 13 10 7 3 7 3 2 3 7 5 24 20 9 5 12 7 9 5 4 5 14 15 19 12 5 5 4 6 2 9 5 5 8 6 15 15 22 21
24 20 17 13 6 13 11 7 6 3 5 3 3 3 2 2 4 5 14 12 6 5 6 10 7 7 15 13 12 11 6 10 8 8 3 4 2 5 1 6 11 5 5 3 5
21 14 13 14 20 17 14 8 4 4 7 6 4 5 3 2 2 2 2 2 2 3 4 4 5 5 7 3 10 7 5 5 4 4 1 8 7 10 6 9 2 3 0 2 2
23 22 17 13 15 17 11 5 1 4 6 7 4 4 3 3 3 5 4 3 5 4 14 2 5 3 2 4 4 1 6 2 1 2 8 3 7 19 5 6 6 6 8 11 18
22 22 20 14 14 12 6 1 5 4 6 4 4 6 4 3 5 4 3 4 7 4 3 8 8 10 7 5 8 11 5 5 8 4 2 3 7 7 4 3 8 7 15 17 20
22 21 18 13 10 9 4 4 4 4 3 7 8 3 4 4 3 2 4 4 6 15 8 6 7 1 4 3 1 6 4 9 4 2 1 4 7 9 6 2 2 10 14 15 14
23 20 15 5 3 1 1 6 4 3 0 1 2 2 4 4 4 3 3 3 4 6 3 4 6 2 1 1 1 2 2 5 2 5 5 6 5 8 1 6 6 6 9 12 7
24 10 7 5 3 2 3 7 5 5 3 4 2 4 6 4 5 4 4 4 2 3 5 3 1 1 0 6 12 1 3 3 2 3 5 2 6 7 8 10 16 9 14 9 7
14 3 7 5 3 2 3 5 3 5 7 6 5 7 6 3 4 5 7 6 3 3 1 3 2 6 7 1 2 1 7 17 5 6 3 1 8 3 8 8 11 10 10 8 6
11 10 7 2 3 3 5 5 4 3 5 3 3 4 1 3 5 5 3 3 7 2 4 1 3 2 5 2 2 3 4 2 1 2 6 8 7 5 5 8 11 13 8 7 4
4 2 4 5 6 2 2 6 4 6 4 6 6 2 3 4 7 4 3 4 8 5 3 5 5 6 4 3 1 1 2 5 4 7 8 11 2 2 1 6 6 6 5 5 5
10 6 6 3 4 2 2 4 7 4 3 4 4 2 4 4 4 3 5 5 5 10 5 2 4 2 5 5 4 5 5 6 13 13 10 12 13 7 6 4 4 2 3 5 6
12 6 6 4 6 4 4 4 5 4 3 6 7 4 1 2 5 3 7 4 4 2 6 4 3 2 4 7 8 8 11 10 14 13 19 16 19 4 1 5 6 7 5 5 5
24 25 16 10 4 6 6 7 8 7 7 7 3 3 3 5 5 15 18 17 14 10 1 2 3 1 4 5 2 8 13 15 7 7 15 13 16 7 2 5 9 11 7 5 2
Wind_Direction
317 322 325 327 330 334 334 332 322 314 309 307 306 302 298 292 287 280 266 265 266 256 251 241 222 215 211 209 206 196 207 240 221 175 242 198 189 209 215 214 207 208 228 235 257
313 316 319 326 327 331 334 334 333 322 313 308 307 306 306 303 296 280 279 270 261 253 240 234 224 209 197 205 195 179 219 234 186 200 223 228 206 200 184 216 228 230 237 247 239
305 309 309 313 318 320 327 331 334 332 322 313 307 308 311 313 306 286 278 264 241 237 237 235 226 218 213 204 191 203 229 231 229 223 232 226 233 214 191 243 216 227 237 234 230
299 300 300 298 306 313 318 320 326 329 329 319 310 309 315 307 274 304 334 342 262 220 221 221 220 203 207 207 208 221 232 218 223 233 202 210 213 210 206 241 255 243 243 243 241
304 302 300 298 297 302 307 312 318 324 324 322 313 314 312 282 257 271 287 290 284 227 216 210 203 198 187 209 215 229 224 232 237 242 234 234 221 225 241 248 249 246 244 248 252
309 309 299 296 294 299 301 310 313 317 323 319 312 305 287 264 278 274 274 275 259 236 220 214 216 221 258 219 193 240 222 238 243 240 226 207 244 189 251 258 251 249 253 257 258
313 310 304 299 291 296 303 314 314 305 314 317 306 286 267 256 270 282 261 256 255 244 226 221 217 207 241 281 244 254 260 280 226 214 228 192 268 226 245 238 233 242 254 257 258
316 313 299 291 295 285 299 313 323 319 305 303 300 277 261 280 274 261 242 245 245 240 229 234 225 232 239 276 318 200 178 240 204 164 218 162 252 239 242 241 252 258 259 258 258
326 314 307 295 287 286 292 304 309 310 301 286 264 244 267 279 271 275 246 235 244 238 220 205 194 207 206 155 323 253 219 216 273 195 138 192 258 247 229 221 248 256 258 260 263
335 327 310 296 300 288 286 301 307 304 288 269 237 252 255 264 276 282 257 225 241 243 219 200 188 189 168 161 223 228 226 245 217 210 182 215 252 269 239 225 244 268 269 269 264
336 329 324 316 298 284 288 307 325 299 253 228 228 226 281 285 275 248 224 199 202 204 188 194 180 216 212 209 223 221 216 231 224 198 171 230 253 241 268 259 253 263 266 265 263
338 330 326 312 301 298 283 310 297 291 294 270 263 255 250 260 296 238 201 183 175 205 140 122 226 229 192 202 229 220 239 254 266 171 189 291 267 230 233 252 247 257 262 264 264
342 336 331 319 303 288 290 298 305 317 278 283 254 258 258 246 245 239 198 198 188 184 204 214 200 179 183 186 217 229 231 235 219 151 204 328 284 225 249 242 249 252 257 266 269
350 346 356 0 306 297 298 342 320 303 323 276 246 273 235 221 248 233 222 209 216 216 168 236 246 195 206 234 199 236 215 194 174 130 250 104 276 275 236 245 238 256 262 269 276
356 4 346 321 316 329 319 334 328 328 316 324 333 324 272 214 338 38 194 185 211 201 151 227 185 191 223 223 182 244 184 191 196 204 127 218 252 266 349 267 256 230 228 256 277
350 340 313 304 311 315 297 234 130 39 253 318 332 350 353 258 326 22 340 189 149 266 247 274 321 187 189 78 188 150 91 66 75 119 196 203 170 265 192 216 206 178 160 287 18
339 338 336 311 300 302 277 176 49 192 339 310 330 358 318 273 245 177 166 228 198 168 240 232 208 207 165 112 60 206 148 151 18 159 232 172 172 250 272 227 191 155 122 105 91
335 331 326 327 311 316 222 123 230 213 245 339 347 305 258 198 246 217 198 223 231 319 73 228 248 173 178 213 180 191 210 157 198 193 239 115 219 250 254 303 218 157 132 117 89
329 326 313 301 297 305 193 235 232 230 307 336 326 329 302 341 229 265 230 243 223 189 219 204 251 68 15 102 111 198 218 153 90 141 84 227 269 296 227 278 112 137 135 122 102
333 322 303 318 314 261 248 259 244 226 258 209 212 320 267 306 349 8 303 226 269 208 109 291 288 17 8 100 80 219 204 83 193 166 215 244 261 235 174 193 183 160 144 124 94
335 316 282 322 14 209 231 234 276 258 234 240 247 256 248 264 198 217 241 280 0 2 141 350 270 18 22 214 190 130 172 125 136 202 195 233 249 213 231 196 170 168 139 96 91
334 339 303 309 282 247 249 208 270 269 233 266 250 249 237 273 243 226 241 235 207 85 15 201 227 261 226 33 354 356 213 197 196 203 238 141 258 316 248 165 150 150 130 111 100
307 286 281 242 244 252 298 280 274 280 239 238 266 260 196 295 287 230 277 11 348 186 173 247 205 306 310 347 12 210 200 197 169 77 198 199 257 0 78 107 140 134 115 105 101
263 322 271 225 252 249 293 274 271 306 276 286 266 281 289 243 222 280 285 346 337 340 323 326 198 209 200 158 101 309 281 204 163 225 219 238 318 318 131 139 162 139 89 125 119
210 233 220 254 276 201 290 305 297 307 273 282 285 13 1 289 319 345 4 321 2 12 338 286 260 188 263 230 194 225 221 221 214 234 223 253 243 231 222 179 159 143 189 164 138
232 196 206 239 170 209 233 231 231 258 202 267 244 351 10 297 294 325 357 349 292 320 11 328 289 346 274 254 217 247 236 221 228 247 249 259 270 260 278 203 195 208 207 185 185
234 229 218 192 176 171 208 210 213 163 247 231 165 291 283 276 269 296 279 258 250 268 202 248 289 289 265 325 185 269 233 210 200 211 227 236 258 191 208 324 286 254 193 179 164